Regional Weather Roundup
Issued by NWS

Home | Current Version | Previous Version | Graphics & Text | Print | Product List | Glossary Off
Versions: 1 2 3 4 5 6 7 8 9 10 11 12 13 14 15 16 17 18 19 20 21 22 23 24 25 26 27 28 29 30 31 32 33 34 35 36 37 38 39 40 41 42 43 44 45 46 47 48 49 50

000
ASUS43 KDMX 021907
RWRIA

WEATHER ROUNDUP FOR IOWA
NATIONAL WEATHER SERVICE DES MOINES IA
200 PM CDT WED SEP 02 2015

NOTE: "FAIR" INDICATES FEW OR NO CLOUDS BELOW 12,000 FEET WITH NO
SIGNIFICANT WEATHER AND/OR OBSTRUCTIONS TO VISIBILITY.

* - THESE STATIONS ARE NOT NWS STATIONS...THUS NOT UNDER NWS
QUALITY CONTROL.  THEY ALSO DO NOT REPORT WEATHER SUCH
AS PRECIPITATION OR FOG.

IAZ001>003-012>014-020>022-031>034-043>046-022000-
   NORTHWEST IOWA

CITY           SKY/WX    TMP DP  RH WIND       PRES   REMARKS
CARROLL *      SUNNY     82  72  69 SW20G26   29.91S HX  87
CHEROKEE *     SUNNY     84  73  70 S16       29.88F HX  91
DENISON *      SUNNY     82  72  69 S14G20    29.88F HX  87
LE MARS *      SUNNY     84  72  65 S15G22    29.87S HX  89
ORANGE CITY *  SUNNY     82  72  69 S14G20    29.87S HX  87
SHELDON *      SUNNY     84  72  65 S15       29.86F HX  89
SIOUX CITY     SUNNY     85  70  60 S16       29.86F HX  89
SPENCER        SUNNY     85  70  60 S15G23    29.88F HX  89
STORM LAKE *   MOSUNNY   81  72  74 SW17G24   29.91S HX  84
$$

IAZ055>058-069>071-079>083-090>094-022000-
   SOUTHWEST IOWA

CITY           SKY/WX    TMP DP  RH WIND       PRES   REMARKS
ATLANTIC *     SUNNY     84  72  65 S15G26    29.92F HX  89
AUDUBON *      SUNNY     84  72  65 S13G23    29.93F HX  89
CLARINDA *     SUNNY     84  72  65 S15G24    29.94F HX  89
COUNCIL BLFS * SUNNY     84  70  61 S16G26    29.91F HX  88
CRESTON *      SUNNY     82  70  65 S21G26    29.96F HX  86
LAMONI         SUNNY     84  68  58 SW21G31   29.96F HX  87
RED OAK *      SUNNY     84  72  65 S15G28    29.92F HX  89
SHENANDOAH *   SUNNY     88  72  58 S17G24    29.92F HX  94
$$

IAZ047>049-059>061-072>074-084-022000-
   CENTRAL IOWA

CITY           SKY/WX    TMP DP  RH WIND       PRES   REMARKS
AMES           SUNNY     84  69  60 SW20G31   29.92F HX  88
ANKENY *       SUNNY     86  70  58 SW17G28   29.92F HX  90
CHARITON *     SUNNY     84  64  51 S17G28    29.94F HX  86
DES MOINES     MOSUNNY   87  68  52 SW10      29.92F HX  90
GRINNELL*      SUNNY     84  68  58 SW16      29.95F HX  87
KNOXVILLE *    SUNNY     82  68  61 SW16G23   29.93S HX  85
MARSHALLTOWN   SUNNY     84  69  60 SW18G24   29.93S HX  88
PELLA *        SUNNY     86  72  62 SW13      29.96R HX  92
PERRY *          N/A     86  70  58 SW15      29.92S HX  90
$$

IAZ004>006-015-016-023>025-035-036-022000-
   NORTH CENTRAL IOWA

CITY           SKY/WX    TMP DP  RH WIND       PRES   REMARKS
ALGONA *       MOSUNNY   84  72  65 S18       29.90S HX  89
CLARION *      SUNNY     84  72  65 SW17G26   29.91F HX  89
ESTHERVILLE    SUNNY     83  72  69 SW15      29.88F HX  88
FORT DODGE *   SUNNY     84  70  61 SW18G24   29.91F HX  88
MASON CITY     MOSUNNY   84  72  67 SW16G25   29.92F HX  89
FOREST CITY *  PTSUNNY   82  68  61 S14       29.91S HX  85
IOWA FALLS *     N/A     86  70  58 S15G22    29.94S HX  90
$$

IAZ007>011-017>019-026>030-037>042-050>054-066-022000-
   NORTHEAST IOWA

CITY           SKY/WX    TMP DP  RH WIND       PRES   REMARKS
CEDAR RAPIDS   PTSUNNY   81  73  76 S10       29.97F HX  86
CHARLES CITY * PTSUNNY   82  72  69 SW15G23   29.93F HX  87
CLINTON *      CLOUDY    82  70  65 SW12      30.03F HX  86
DECORAH *      SUNNY     82  70  65 SW8G18    29.94F HX  86
DUBUQUE        PTSUNNY   80  69  69 S16       30.01S HX  83
MONTICELLO *   MOSUNNY   81  70  69 S8        29.98F HX  84
OELWEIN *      MOSUNNY   82  72  69 S12G18    29.96F HX  87
WATERLOO       SUNNY     85  70  60 S16       29.93F HX  89
$$

IAZ064-065-067-068-078-022000-
   EAST CENTRAL IOWA

CITY           SKY/WX    TMP DP  RH WIND       PRES   REMARKS
DAVENPORT      CLOUDY    82  68  62 SW7       30.01F HX  85
IOWA CITY      CLOUDY    82  70  66 S9        29.99F HX  86
MT. PLEASANT * CLOUDY    84  68  58 S6        29.99F HX  87
MUSCATINE *    SUNNY     84  70  61 S8        29.99F HX  88
QUAD CITIES    CLOUDY    84  69  60 SW5       30.00F HX  88
$$

IAZ062-063-075>077-085>089-095>099-022000-
   SOUTHEAST IOWA

CITY           SKY/WX    TMP DP  RH WIND       PRES   REMARKS
BURLINGTON     CLOUDY    85  71  63 S9        29.99F HX  90
FAIRFIELD *    SUNNY     81  68  65 S9        29.98S HX  83
FORT MADISON * SUNNY     82  72  69 SW7       30.00F HX  87
KEOKUK *       SUNNY     84  70  61 S12       29.98F HX  88
OSKALOOSA *      N/A     86  64  48 SW12      29.97S HX  87
CENTERVILLE *  SUNNY     82  70  65 SW14      29.97S HX  86
OTTUMWA        MOSUNNY   82  70  66 S14       29.95F HX  86
WASHINGTON *     N/A    N/A N/A N/A MISG        N/A
$$

ABBREVIATIONS USED IN REMARKS
   TC - TEMPERATURES IN CELSIUS
  WCI - WIND CHILL INDEX
   HX - HEAT INDEX
  VSB - VISIBILITY
$$




USA.gov is the U.S. government's official web portal to all federal, state and local government web resources and services.